Weather History for Cody, WY

Change the Weather History Date:

Monday, April 22, 2013

  Actual Average Record
Temperature  
Mean Temperature 22 °F -  
Max Temperature 26 °F 60 °F 80 °F (1939)
Min Temperature 17 °F 34 °F 13 °F (1951)
Degree Days  
Heating Degree Days 44    
Moisture  
Dew Point 16 °F    
Average Humidity 78    
Maximum Humidity 93    
Minimum Humidity 63    
Precipitation  
Precipitation 0.00 in - - ()
Sea Level Pressure  
Sea Level Pressure 30.24 in    
Wind  
Wind Speed 14 mph (NNW)    
Max Wind Speed 20 mph    
Max Gust Speed 26 mph    
Visibility 8 miles    
Events      
Averages and records for this station are not official NWS values.
T = Trace of Precipitation, MM = Missing Value Source: NWS Daily Summary

Daily Weather History Graph

Daily Weather History Graph

Search for Another Location

Airport:

Trip Planner

Search our weather history database for the weather conditions in past years. The results will help you decide how hot, cold, wet, or windy it might be!

Date:

Astronomy

Apr. 22, 2013 Rise Set
Actual Time 6:19 AM MDT 8:09 PM MDT
Civil Twilight 5:48 AM MDT 8:41 PM MDT
Nautical Twilight 5:10 AM MDT 9:19 PM MDT
Astronomical Twilight 4:29 AM MDT 10:00 PM MDT
Moon 4:55 PM MDT (4/22) 4:24 AM MDT (4/22)
Length of Visible Light 14h 52m
Length of Day
13h 50m
Waxing Gibbous, 88% of the Moon is Illuminated
Apr 22
Waxing Gibbous
Apr 25
Full
May 2
Last Quarter
May 9
New
May 17
First Quarter

Hourly Weather History & Observations

Time (MDT) Temp. Windchill Dew Point Humidity Pressure Visibility Wind Dir Wind Speed Gust Speed Precip Events Conditions
12:15 AM 23.0 °F 10.1 °F 21.2 °F 93% 30.09 in 5.0 mi NNW 15.0 mph 26.5 mph N/A   Overcast
12:35 AM 23.0 °F 8.7 °F 19.4 °F 86% 30.11 in 7.0 mi NNW 18.4 mph - N/A   Overcast
12:55 AM 23.0 °F 9.6 °F 19.4 °F 86% 30.11 in 5.0 mi NW 16.1 mph 23.0 mph N/A   Overcast
1:15 AM 23.0 °F 9.6 °F 19.4 °F 86% 30.11 in 3.0 mi NW 16.1 mph 23.0 mph N/A   Overcast
1:35 AM 23.0 °F 9.2 °F 19.4 °F 86% 30.11 in 5.0 mi NNW 17.3 mph 20.7 mph N/A   Overcast
1:55 AM 23.0 °F 10.1 °F 19.4 °F 86% 30.12 in 7.0 mi NW 15.0 mph 18.4 mph N/A   Overcast
2:15 AM 21.2 °F 8.9 °F 19.4 °F 93% 30.11 in 10.0 mi NW 12.7 mph - N/A   Overcast
2:35 AM 21.2 °F 8.3 °F 19.4 °F 93% 30.11 in 10.0 mi NW 13.8 mph 23.0 mph N/A   Mostly Cloudy
3:15 AM 21.2 °F 10.1 °F 19.4 °F 93% 30.11 in 10.0 mi NW 10.4 mph 23.0 mph N/A   Overcast
3:55 AM 21.2 °F 9.5 °F 19.4 °F 93% 30.12 in 10.0 mi NNW 11.5 mph - N/A   Overcast
4:15 AM 21.2 °F 11.7 °F 17.6 °F 86% 30.12 in 10.0 mi NNW 8.1 mph - N/A   Overcast
4:35 AM 21.2 °F 10.1 °F 17.6 °F 86% 30.12 in 10.0 mi North 10.4 mph 16.1 mph N/A   Overcast
4:55 AM 21.2 °F 9.5 °F 17.6 °F 86% 30.13 in 10.0 mi North 11.5 mph - N/A   Overcast
5:15 AM 21.2 °F 10.9 °F 17.6 °F 86% 30.13 in 10.0 mi North 9.2 mph - N/A   Overcast
5:35 AM 21.2 °F 8.9 °F 19.4 °F 93% 30.14 in 5.0 mi North 12.7 mph - N/A   Overcast
5:55 AM 21.2 °F 9.5 °F 19.4 °F 93% 30.14 in 5.0 mi NNW 11.5 mph - N/A   Overcast
6:15 AM 21.2 °F 9.5 °F 17.6 °F 86% 30.15 in 6.0 mi NNW 11.5 mph 18.4 mph N/A   Overcast
6:55 AM 21.2 °F 8.9 °F 17.6 °F 86% 30.18 in 9.0 mi North 12.7 mph 19.6 mph N/A   Overcast
7:15 AM 21.2 °F 7.8 °F 17.6 °F 86% 30.18 in 7.0 mi NNW 15.0 mph 18.4 mph N/A   Overcast
7:35 AM 21.2 °F 7.8 °F 17.6 °F 86% 30.19 in 3.0 mi NNW 15.0 mph 19.6 mph N/A   Overcast
7:55 AM 21.2 °F 7.3 °F 17.6 °F 86% 30.20 in 4.0 mi NNW 16.1 mph 21.9 mph N/A   Overcast
8:15 AM 21.2 °F 7.3 °F 17.6 °F 86% 30.20 in 2.0 mi NNW 16.1 mph 21.9 mph N/A   Overcast
8:35 AM 21.2 °F 6.8 °F 17.6 °F 86% 30.21 in 1.5 mi NNW 17.3 mph 25.3 mph N/A   Overcast
8:55 AM 21.2 °F 7.8 °F 17.6 °F 86% 30.22 in 1.8 mi NNW 15.0 mph 25.3 mph N/A   Overcast
9:15 AM 21.2 °F 6.4 °F 17.6 °F 86% 30.23 in 1.2 mi NNW 18.4 mph 25.3 mph N/A   Overcast
9:35 AM 21.2 °F 7.8 °F 17.6 °F 86% 30.24 in 1.2 mi NNW 15.0 mph 23.0 mph N/A   Overcast
9:55 AM 21.2 °F 7.8 °F 17.6 °F 86% 30.25 in 1.2 mi NNW 15.0 mph 24.2 mph N/A   Overcast
10:15 AM 19.4 °F 5.5 °F 15.8 °F 86% 30.26 in 1.5 mi NNW 15.0 mph 23.0 mph N/A   Overcast
10:35 AM 19.4 °F 5.0 °F 15.8 °F 86% 30.26 in 1.0 mi NNW 16.1 mph 25.3 mph N/A   Overcast
10:55 AM 21.2 °F 6.0 °F 17.6 °F 86% 30.27 in 1.5 mi NNW 19.6 mph 24.2 mph N/A   Overcast
11:15 AM 21.2 °F 7.3 °F 15.8 °F 80% 30.28 in 4.0 mi NNW 16.1 mph 21.9 mph N/A   Overcast
11:35 AM 21.2 °F 6.0 °F 15.8 °F 80% 30.28 in 2.5 mi NNW 19.6 mph 23.0 mph N/A   Overcast
11:55 AM 21.2 °F 6.0 °F 15.8 °F 80% 30.29 in 5.0 mi North 19.6 mph 24.2 mph N/A   Overcast
12:15 PM 21.2 °F 6.8 °F 15.8 °F 80% 30.29 in 3.0 mi North 17.3 mph 23.0 mph N/A   Overcast
12:35 PM 21.2 °F 8.3 °F 15.8 °F 80% 30.30 in 4.0 mi North 13.8 mph 20.7 mph N/A   Overcast
12:55 PM 23.0 °F 10.1 °F 15.8 °F 74% 30.30 in 6.0 mi North 15.0 mph 20.7 mph N/A   Overcast
1:35 PM 23.0 °F 9.6 °F 15.8 °F 74% 30.29 in 10.0 mi NNW 16.1 mph 21.9 mph N/A   Overcast
1:55 PM 24.8 °F 11.5 °F 15.8 °F 69% 30.29 in 10.0 mi North 17.3 mph 23.0 mph N/A   Overcast
2:16 PM 24.8 °F 12.9 °F 15.8 °F 69% 30.28 in 10.0 mi NNW 13.8 mph 20.7 mph N/A   Mostly Cloudy
2:35 PM 24.8 °F 12.4 °F 15.8 °F 69% 30.29 in 10.0 mi NNW 15.0 mph 21.9 mph N/A   Scattered Clouds
2:55 PM 24.8 °F 12.4 °F 15.8 °F 69% 30.28 in 10.0 mi North 15.0 mph 20.7 mph N/A   Mostly Cloudy
3:15 PM 24.8 °F 11.9 °F 15.8 °F 69% 30.28 in 10.0 mi North 16.1 mph 21.9 mph N/A   Mostly Cloudy
3:35 PM 26.6 °F 14.3 °F 15.8 °F 64% 30.28 in 10.0 mi NNW 16.1 mph 21.9 mph N/A   Mostly Cloudy
3:55 PM 26.6 °F 13.8 °F 15.8 °F 64% 30.28 in 10.0 mi NNW 17.3 mph 23.0 mph N/A   Mostly Cloudy
4:15 PM 26.6 °F 14.3 °F 15.8 °F 64% 30.28 in 10.0 mi NNW 16.1 mph 20.7 mph N/A   Scattered Clouds
4:35 PM 26.6 °F 14.7 °F 15.8 °F 64% 30.28 in 10.0 mi NNW 15.0 mph 19.6 mph N/A   Mostly Cloudy
4:55 PM 24.8 °F 14.0 °F 14.0 °F 64% 30.28 in 10.0 mi North 11.5 mph 20.7 mph N/A   Mostly Cloudy
5:15 PM 26.6 °F 15.7 °F 15.8 °F 64% 30.28 in 10.0 mi North 12.7 mph - N/A   Overcast
5:35 PM 26.6 °F 15.7 °F 15.8 °F 64% 30.29 in 10.0 mi North 12.7 mph 16.1 mph N/A   Overcast
5:55 PM 24.8 °F 12.9 °F 15.8 °F 69% 30.29 in 10.0 mi NNW 13.8 mph - N/A   Mostly Cloudy
6:15 PM 26.6 °F 15.7 °F 15.8 °F 64% 30.29 in 10.0 mi NNW 12.7 mph - N/A   Mostly Cloudy
6:35 PM 26.6 °F 15.2 °F 15.8 °F 64% 30.29 in 10.0 mi North 13.8 mph - N/A   Mostly Cloudy
6:55 PM 24.8 °F 13.4 °F 15.8 °F 69% 30.29 in 10.0 mi NNW 12.7 mph - N/A   Overcast
7:15 PM 24.8 °F 12.9 °F 15.8 °F 69% 30.29 in 10.0 mi North 13.8 mph - N/A   Mostly Cloudy
7:35 PM 24.8 °F 14.6 °F 14.0 °F 64% 30.29 in 10.0 mi NNW 10.4 mph - N/A   Clear
7:55 PM 23.0 °F 13.9 °F 12.2 °F 63% 30.29 in 10.0 mi NNW 8.1 mph - N/A   Scattered Clouds
8:15 PM 23.0 °F 13.9 °F 12.2 °F 63% 30.30 in 10.0 mi NW 8.1 mph - N/A   Scattered Clouds
8:35 PM 21.2 °F 12.6 °F 12.2 °F 68% 30.30 in 10.0 mi NW 6.9 mph - N/A   Clear
8:55 PM 21.2 °F 14.9 °F 12.2 °F 68% 30.30 in 10.0 mi NW 4.6 mph - N/A   Clear
9:15 PM 21.2 °F 13.6 °F 12.2 °F 68% 30.31 in 10.0 mi NW 5.8 mph - N/A   Clear
9:35 PM 19.4 °F 9.5 °F 12.2 °F 74% 30.31 in 10.0 mi WNW 8.1 mph - N/A   Clear
9:55 PM 19.4 °F 12.8 °F 12.2 °F 74% 30.31 in 10.0 mi WNW 4.6 mph - N/A   Clear
10:15 PM 19.4 °F 12.8 °F 12.2 °F 74% 30.31 in 10.0 mi NW 4.6 mph - N/A   Clear
10:35 PM 19.4 °F - 10.4 °F 68% 30.31 in 10.0 mi Calm Calm - N/A   Clear
10:55 PM 17.6 °F - 10.4 °F 73% 30.31 in 10.0 mi Calm Calm - N/A   Clear
11:15 PM 17.6 °F 10.7 °F 10.4 °F 73% 30.31 in 10.0 mi SSW 4.6 mph - N/A   Clear
11:35 PM 17.6 °F 10.7 °F 12.2 °F 79% 30.30 in 10.0 mi WSW 4.6 mph - N/A   Clear
11:55 PM 17.6 °F 10.7 °F 12.2 °F 79% 30.30 in 10.0 mi WSW 4.6 mph - N/A   Clear